533  
ASUS42 KKEY 181810  
RWRKEY  
 
FLORIDA REGIONAL WEATHER ROUNDUP FOR THE FLORIDA KEYS  
NATIONAL WEATHER SERVICE KEY WEST FLORIDA  
200 PM EDT FRI AUG 18 2017  
   
..SOUTH FLORIDA AND THE KEYS
 
 
 
CITY SKY/WX TMP DP RH WIND PRES REMARKS
 
FORT MYERS MOSUNNY 91 77 63 SW3 30.00F HX 104  
SW REGIONAL AP PTSUNNY 92 73 53 VRB5 30.01F HX 100  
NAPLES MOSUNNY 90 73 57 W9 30.01F HX 98  
MIAMI MOSUNNY 94 74 52 SE9G16 30.01F HX 104  
WEST KENDALL SUNNY 94 73 50 E13 30.00F HX 103  
HOMESTEAD MOSUNNY 90 78 69 E10 30.00F HX 104  
MARATHON MOSUNNY 92 78 63 SE7 30.00F HX 107  
BOCA CHICA NAS CLOUDY 86 78 77 NE12 30.01S THUNDER HX 98  
KEY WEST INTL PTSUNNY 88 76 67 E8 30.01S HX 99  
   
..INTERNATIONAL WEATHER
 
 
 
CITY SKY/WX TMP DP RH WIND PRES REMARKS
 
NASSAU BAHAMAS MOSUNNY 91 79 66 NE12 30.01F HX 107  
CANCUN MEXICO MOSUNNY 90 75 62 NE9 29.99F HX 100  
COZUMEL MEXICO MOSUNNY 90 77 66 NE12 29.97F HX 102  
 
ADJACENT COASTAL WATERS...  
 
STATION/POSITION TIME SKY/WX TEMP WIND PRES WAVE
 
AIR SEA DIR/SP/G HT/PER  
(UTC) (F) (DEG/KT/KT) (MB) (FT/S)  
PULASKI SHOAL LI 1800 87 70/ 5/ 5 1016.5F  
SAND KEY 1750 86 100/ 7/ 9 1016.8F  
LONG KEY NOT AVBL  
MOLASSES REEF 1700 86 87 110/ 6/ 6 1016.9F  
FOWEY ROCKS 1700 85 88 90/ 7/ 8 1017.4F  
BUOY 42097 1730 88 N/A 1/ 3  
 

 
 
 
CLICK HERE TO GO TO PREVIOUS BULLETINS.

The Nexlab FL Page Main Text Page